Weather in Louny

Czech Republic     50°21′19″N   13°47′47″E
temp.,
°C
wind,
m/s
gust,
m/s
humid.,
%
clouds,
%
prec.,
mm/h
press.,
hPa
HPBL,
m
22 october, fri
fri2223:00+9w7137998 0.3 10101347
02:00+7w510713 0.4 1013540
05:00+5wsw510766 0.0 1014340
08:00+4wsw512815 0.0 1016445
11:00+7wsw914626 0.0 10161211
14:00+10wsw1015455 0.0 10151542
17:00+9wsw10175587 0.0 10151682
20:00+8wsw9166498 0.0 10171125
23 october, sat
sat2323:00+7w71382100 0.2 10201440
02:00+5w5107079 0.7 1022403
05:00+4w51176100 0.0 1023352
08:00+3wsw4107791 0.0 1025263
11:00+8wnw695916 0.0 10261181
14:00+9wnw684997 0.1 10261689
17:00+9wnw475611 0.0 1027662
20:00+5w22755 0.0 103018
24 october, sun
sun2423:00+4wsw118198 0.0 103110
02:00+4sw1182100 0.0 103110
05:00+3s11865 0.0 103110
08:00+2ese11885 0.0 103110
11:00+7ese34665 0.0 1031535
14:00+11se45480 0.0 1029944
17:00+10ese46470 0.0 1028209
20:00+5se22635 0.0 102813
25 october, mon
mon2523:00+4e22695 0.0 102819
02:00+2e22740 0.0 102728
05:00+1ese11850 0.0 102710
08:000sse11890 0.0 102710
11:00+6sse11660 0.0 1026339
14:00+11s12501 0.0 1024629
17:00+10s1156100 0.0 102311
20:00+7ssw1165100 0.0 102410
26 october, tue
tue2623:00+6sw117099 0.0 102510
02:00+4ssw2178100 0.0 102510
05:00+4sw1182100 0.0 102510
08:00+3sw1182100 0.0 102610
11:00+9wsw11605 0.0 1026270
14:00+13wnw22464 0.0 1024665
17:00+12nw015734 0.0 102412
20:00+8sw117847 0.0 102511